Powrót do katalogu

CZ-6A DEB

AktywnyPO
NORAD 56283·DEBRIS·🇨🇳 China

Wystrzelony Nov 11, 2022 z Taiyuan Satellite Launch Center

Loading…

Następne Przeloty (najbliższe 24 godziny)

TLE

ŚwieżeSource: Space-Track

Epoka: Sep 14, 2026, 03:02 UTC

1 56283U 22151ADB 26257.12665051  .00017555  00000-0  21586-2 0  9990
2 56283  98.5747 315.7837 0048680  19.8015 340.5071 14.82229066185251

Śledź CZ-6A DEB w czasie rzeczywistym z AllMySat

Download on the App Store